TAM2408 TNCM-SBSV

Flight info

Callsign TAM2408
Flight time N/A
Altitude 35000
Route VECTORXELOPO/10 MODOR2 ELOPO UB520 ANU UA632 BGI UA555 ERUGA/N0491F370 UA555 BEL/N0492F360 UZ3 PIRES/N0491F370 UZ41 DORMU
Aircraft B77W/H-SDE1E2E3FGHIJ2J3J4J5M1RWXY/LB1D1

Departure

Time N/A
Airport Princess Juliana International Airport (TNCM)

Arrival

Time 2026-04-28 00:18
Airport Deputado Luiz Eduardo Magalhães International Airport (SBSV)
Time Latitude Longitude Altitude Speed Heading
2026-04-27 22:43 -4.80433 -46.22614 36963 ft 477 kts 135°
2026-04-27 22:44 -4.82845 -46.20336 36967 ft 476 kts 135°
2026-04-27 22:44 -4.87664 -46.15783 36964 ft 476 kts 135°
2026-04-27 22:45 -4.92447 -46.11265 36967 ft 475 kts 135°
2026-04-27 22:45 -4.97252 -46.06723 36972 ft 475 kts 135°
2026-04-27 22:46 -5.02057 -46.02181 36961 ft 474 kts 135°
2026-04-27 22:46 -5.06858 -45.97642 36972 ft 475 kts 135°
2026-04-27 22:47 -5.11638 -45.93120 36963 ft 475 kts 135°
2026-04-27 22:47 -5.16440 -45.88574 36958 ft 476 kts 134°
2026-04-27 22:48 -5.21246 -45.83999 36979 ft 476 kts 134°
2026-04-27 22:48 -5.26047 -45.79422 36966 ft 476 kts 134°
2026-04-27 22:49 -5.30853 -45.74842 36958 ft 477 kts 134°
2026-04-27 22:49 -5.35635 -45.70284 36977 ft 477 kts 134°
2026-04-27 22:50 -5.40449 -45.65696 36957 ft 477 kts 134°
2026-04-27 22:50 -5.45269 -45.61100 36923 ft 479 kts 135°
2026-04-27 22:51 -5.50139 -45.56455 36970 ft 488 kts 135°
2026-04-27 22:51 -5.55043 -45.51778 36968 ft 490 kts 135°
2026-04-27 22:52 -5.59989 -45.47060 36965 ft 490 kts 135°
2026-04-27 22:52 -5.64930 -45.42345 36959 ft 489 kts 135°
2026-04-27 22:53 -5.69852 -45.37648 36960 ft 487 kts 135°
2026-04-27 22:53 -5.74755 -45.32966 36963 ft 485 kts 135°
2026-04-27 22:54 -5.79602 -45.28337 36960 ft 484 kts 135°
2026-04-27 22:54 -5.84472 -45.23684 36964 ft 482 kts 135°
2026-04-27 22:55 -5.89326 -45.19044 36964 ft 481 kts 135°
2026-04-27 22:55 -5.94176 -45.14410 36963 ft 481 kts 135°
2026-04-27 22:56 -5.99027 -45.09782 36966 ft 481 kts 135°
2026-04-27 22:56 -6.03843 -45.05184 36969 ft 481 kts 135°
2026-04-27 22:57 -6.08689 -45.00555 36969 ft 481 kts 135°
2026-04-27 22:57 -6.13538 -44.95922 36964 ft 481 kts 135°
2026-04-27 22:58 -6.18390 -44.91284 36969 ft 481 kts 134°
2026-04-27 22:58 -6.23204 -44.86681 36966 ft 481 kts 134°
2026-04-27 22:59 -6.28052 -44.82044 36971 ft 481 kts 134°
2026-04-27 22:59 -6.32925 -44.77446 36969 ft 481 kts 136°
2026-04-27 23:00 -6.40475 -44.70773 36969 ft 482 kts 137°
2026-04-27 23:00 -6.45471 -44.66363 36974 ft 481 kts 136°
2026-04-27 23:01 -6.50490 -44.61898 36974 ft 481 kts 136°
2026-04-27 23:01 -6.55492 -44.57435 36976 ft 481 kts 136°
2026-04-27 23:02 -6.60499 -44.52967 36972 ft 481 kts 136°
2026-04-27 23:02 -6.65477 -44.48524 36968 ft 482 kts 136°
2026-04-27 23:03 -6.70486 -44.44053 36968 ft 482 kts 136°
2026-04-27 23:03 -6.75501 -44.39576 36972 ft 482 kts 136°
2026-04-27 23:04 -6.80511 -44.35101 36968 ft 482 kts 136°
2026-04-27 23:04 -6.85532 -44.30616 36971 ft 482 kts 136°
2026-04-27 23:05 -6.90517 -44.26160 36973 ft 483 kts 136°
2026-04-27 23:05 -6.95537 -44.21673 36972 ft 483 kts 136°
2026-04-27 23:06 -7.00556 -44.17186 36966 ft 483 kts 136°
2026-04-27 23:06 -7.05579 -44.12701 36966 ft 483 kts 136°
2026-04-27 23:07 -7.10563 -44.08248 36968 ft 482 kts 136°
2026-04-27 23:07 -7.15572 -44.03770 36971 ft 482 kts 136°
2026-04-27 23:08 -7.20586 -43.99285 36967 ft 482 kts 136°
2026-04-27 23:08 -7.25586 -43.94811 36969 ft 481 kts 136°
2026-04-27 23:09 -7.30561 -43.90359 36966 ft 481 kts 136°
2026-04-27 23:09 -7.35535 -43.85913 36965 ft 481 kts 136°
2026-04-27 23:10 -7.40544 -43.81438 36970 ft 481 kts 136°
2026-04-27 23:10 -7.45557 -43.76957 36968 ft 481 kts 136°
2026-04-27 23:11 -7.50525 -43.72513 36967 ft 481 kts 136°
2026-04-27 23:11 -7.55526 -43.68038 36974 ft 481 kts 136°
2026-04-27 23:12 -7.60531 -43.63556 36969 ft 481 kts 136°
2026-04-27 23:12 -7.65533 -43.59077 36967 ft 481 kts 136°
2026-04-27 23:13 -7.70500 -43.54628 36969 ft 480 kts 136°
2026-04-27 23:13 -7.75494 -43.50152 36970 ft 480 kts 136°
2026-04-27 23:14 -7.80489 -43.45674 36969 ft 480 kts 136°
2026-04-27 23:14 -7.85471 -43.41201 36977 ft 480 kts 136°
2026-04-27 23:15 -7.90430 -43.36746 36972 ft 480 kts 136°
2026-04-27 23:15 -7.95418 -43.32263 36981 ft 480 kts 136°
2026-04-27 23:16 -8.00410 -43.27774 36980 ft 480 kts 136°
2026-04-27 23:16 -8.05394 -43.23292 36968 ft 481 kts 136°
2026-04-27 23:17 -8.10390 -43.18798 36975 ft 481 kts 136°
2026-04-27 23:17 -8.15351 -43.14333 36974 ft 481 kts 136°
2026-04-27 23:18 -8.20336 -43.09845 36971 ft 481 kts 136°
2026-04-27 23:18 -8.25335 -43.05343 36976 ft 481 kts 136°
2026-04-27 23:19 -8.30326 -43.00847 36996 ft 481 kts 136°
2026-04-27 23:19 -8.35282 -42.96380 36969 ft 480 kts 136°
2026-04-27 23:20 -8.40268 -42.91885 36969 ft 480 kts 136°
2026-04-27 23:20 -8.45247 -42.87394 36974 ft 480 kts 136°
2026-04-27 23:21 -8.50229 -42.82900 36976 ft 480 kts 136°
2026-04-27 23:21 -8.55172 -42.78438 36972 ft 480 kts 136°
2026-04-27 23:22 -8.60154 -42.73941 36972 ft 480 kts 136°
2026-04-27 23:22 -8.65133 -42.69443 36976 ft 481 kts 136°
2026-04-27 23:23 -8.70123 -42.64935 36979 ft 481 kts 136°
2026-04-27 23:23 -8.75104 -42.60432 36978 ft 481 kts 136°
2026-04-27 23:24 -8.80057 -42.55953 36980 ft 482 kts 136°
2026-04-27 23:24 -8.85047 -42.51439 36972 ft 482 kts 137°
2026-04-27 23:25 -8.90046 -42.46914 36978 ft 482 kts 137°
2026-04-27 23:25 -8.95043 -42.42391 36983 ft 482 kts 137°
2026-04-27 23:26 -9.00005 -42.37896 36971 ft 482 kts 136°
2026-04-27 23:26 -9.04997 -42.33371 36976 ft 482 kts 136°
2026-04-27 23:27 -9.09987 -42.28845 36979 ft 482 kts 136°
2026-04-27 23:27 -9.14978 -42.24316 36979 ft 482 kts 136°
2026-04-27 23:28 -9.19934 -42.19818 36977 ft 482 kts 136°
2026-04-27 23:28 -9.24083 -42.16051 36981 ft 482 kts 136°
2026-04-27 23:29 -9.29907 -42.10760 36979 ft 482 kts 136°
2026-04-27 23:29 -9.34897 -42.06225 36987 ft 482 kts 136°
2026-04-27 23:30 -9.39857 -42.01715 36984 ft 482 kts 136°
2026-04-27 23:30 -9.44843 -41.97181 36987 ft 482 kts 136°
2026-04-27 23:31 -9.49833 -41.92640 36985 ft 482 kts 136°
2026-04-27 23:31 -9.54812 -41.88108 36985 ft 482 kts 136°
2026-04-27 23:32 -9.59772 -41.83590 36988 ft 482 kts 136°
2026-04-27 23:32 -9.64757 -41.79049 36988 ft 482 kts 136°
2026-04-27 23:33 -9.69746 -41.74501 36991 ft 482 kts 136°
2026-04-27 23:33 -9.74731 -41.69956 36994 ft 482 kts 136°
2026-04-27 23:34 -9.79714 -41.65409 36999 ft 482 kts 136°
2026-04-27 23:34 -9.84667 -41.60889 37000 ft 482 kts 136°
2026-04-27 23:35 -9.89655 -41.56338 37003 ft 482 kts 136°
2026-04-27 23:35 -9.94648 -41.51799 37006 ft 482 kts 136°
2026-04-27 23:36 -9.99641 -41.47255 37011 ft 482 kts 136°
2026-04-27 23:36 -10.04634 -41.42707 37025 ft 482 kts 136°
2026-04-27 23:37 -10.09556 -41.38170 37028 ft 481 kts 136°
2026-04-27 23:37 -10.14510 -41.33606 37040 ft 481 kts 136°
2026-04-27 23:38 -10.19490 -41.29071 37047 ft 481 kts 136°
2026-04-27 23:38 -10.24444 -41.24559 37044 ft 481 kts 136°
2026-04-27 23:39 -10.29420 -41.20017 37048 ft 481 kts 136°
2026-04-27 23:39 -10.34402 -41.15463 37051 ft 482 kts 137°
2026-04-27 23:40 -10.39394 -41.10899 37045 ft 483 kts 137°
2026-04-27 23:40 -10.44389 -41.06331 37050 ft 484 kts 137°
2026-04-27 23:41 -10.49359 -41.01776 37048 ft 484 kts 137°
2026-04-27 23:41 -10.54356 -40.97188 37047 ft 484 kts 137°
2026-04-27 23:42 -10.59361 -40.92593 37042 ft 485 kts 137°
2026-04-27 23:42 -10.64360 -40.88001 37047 ft 485 kts 137°
2026-04-27 23:43 -10.69334 -40.83436 37044 ft 485 kts 137°
2026-04-27 23:43 -10.74337 -40.78852 37046 ft 485 kts 137°
2026-04-27 23:44 -10.79345 -40.74257 37050 ft 484 kts 137°
2026-04-27 23:44 -10.84342 -40.69671 37045 ft 484 kts 137°
2026-04-27 23:45 -10.89312 -40.65105 37048 ft 484 kts 137°
2026-04-27 23:45 -10.94307 -40.60513 37050 ft 484 kts 137°
2026-04-27 23:46 -10.99311 -40.55909 37050 ft 485 kts 137°
2026-04-27 23:46 -11.04313 -40.51305 37051 ft 485 kts 137°
2026-04-27 23:47 -11.08470 -40.47478 37049 ft 485 kts 137°
2026-04-27 23:47 -11.14282 -40.42115 37047 ft 485 kts 137°
2026-04-27 23:48 -11.19282 -40.37496 37042 ft 485 kts 137°
2026-04-27 23:48 -11.24275 -40.32880 37042 ft 485 kts 137°
2026-04-27 23:49 -11.29272 -40.28258 37043 ft 485 kts 137°
2026-04-27 23:49 -11.34235 -40.23667 37043 ft 485 kts 137°
2026-04-27 23:50 -11.39235 -40.19029 37041 ft 486 kts 137°
2026-04-27 23:50 -11.43382 -40.15178 37042 ft 486 kts 137°
2026-04-27 23:51 -11.48380 -40.10534 37041 ft 486 kts 137°
2026-04-27 23:51 -11.54143 -40.05178 36843 ft 476 kts 137°
2026-04-27 23:52 -11.55789 -40.03647 36619 ft 472 kts 137°
2026-04-27 23:52 -11.58977 -40.00682 36041 ft 465 kts 137°
2026-04-27 23:52 -11.60561 -39.99219 35743 ft 462 kts 137°
2026-04-27 23:52 -11.62975 -39.97070 35275 ft 459 kts 139°
2026-04-27 23:53 -11.65401 -39.94966 34795 ft 456 kts 139°
2026-04-27 23:53 -11.67821 -39.92887 34312 ft 454 kts 139°
2026-04-27 23:53 -11.70233 -39.90813 33801 ft 452 kts 139°
2026-04-27 23:53 -11.72625 -39.88750 33297 ft 449 kts 139°
2026-04-27 23:54 -11.74995 -39.86698 32828 ft 445 kts 139°
2026-04-27 23:54 -11.77343 -39.84658 32340 ft 442 kts 139°
2026-04-27 23:54 -11.79647 -39.82651 31882 ft 439 kts 138°
2026-04-27 23:54 -11.81963 -39.80631 31427 ft 437 kts 138°
2026-04-27 23:55 -11.84177 -39.78700 30993 ft 434 kts 138°
2026-04-27 23:55 -11.86470 -39.76700 30536 ft 432 kts 138°
2026-04-27 23:55 -11.88744 -39.74714 30046 ft 430 kts 137°
2026-04-27 23:55 -11.91011 -39.72736 29538 ft 428 kts 137°
2026-04-27 23:56 -11.93266 -39.70767 29040 ft 424 kts 137°
2026-04-27 23:56 -11.95499 -39.68817 28564 ft 421 kts 137°
2026-04-27 23:56 -11.97586 -39.66995 28132 ft 418 kts 137°
2026-04-27 23:56 -11.99789 -39.65070 27685 ft 414 kts 137°
2026-04-27 23:57 -12.01945 -39.63187 27213 ft 411 kts 137°
2026-04-27 23:57 -12.04109 -39.61296 26782 ft 409 kts 137°
2026-04-27 23:57 -12.06258 -39.59418 26348 ft 406 kts 137°
2026-04-27 23:57 -12.08398 -39.57547 25902 ft 403 kts 137°
2026-04-27 23:58 -12.10523 -39.55689 25456 ft 401 kts 136°
2026-04-27 23:58 -12.12640 -39.53836 25008 ft 399 kts 136°
2026-04-27 23:58 -12.14744 -39.51996 24555 ft 398 kts 136°
2026-04-27 23:58 -12.16846 -39.50157 24137 ft 396 kts 136°
2026-04-27 23:59 -12.18930 -39.48332 23687 ft 395 kts 136°
2026-04-27 23:59 -12.20985 -39.46533 23196 ft 393 kts 136°
2026-04-27 23:59 -12.23056 -39.44719 22741 ft 390 kts 136°
2026-04-27 23:59 -12.25109 -39.42921 22290 ft 387 kts 136°
2026-04-28 00:00 -12.27147 -39.41136 21859 ft 384 kts 136°
2026-04-28 00:00 -12.29168 -39.39366 21432 ft 382 kts 136°
2026-04-28 00:00 -12.31180 -39.37602 21003 ft 379 kts 136°
2026-04-28 00:00 -12.33176 -39.35852 20575 ft 376 kts 137°
2026-04-28 00:01 -12.35151 -39.34120 20165 ft 374 kts 137°
2026-04-28 00:01 -12.37122 -39.32392 19754 ft 372 kts 137°
2026-04-28 00:01 -12.39084 -39.30670 19312 ft 370 kts 137°
2026-04-28 00:01 -12.41034 -39.28959 18892 ft 369 kts 137°
2026-04-28 00:02 -12.42954 -39.27274 18472 ft 368 kts 137°
2026-04-28 00:02 -12.44881 -39.25584 17983 ft 357 kts 137°
2026-04-28 00:02 -12.46709 -39.23982 17553 ft 335 kts 137°
2026-04-28 00:02 -12.48435 -39.22470 17178 ft 323 kts 137°
2026-04-28 00:03 -12.50134 -39.20976 16811 ft 322 kts 137°
2026-04-28 00:03 -12.51842 -39.19475 16451 ft 324 kts 138°
2026-04-28 00:03 -12.53569 -39.17955 16084 ft 332 kts 138°
2026-04-28 00:03 -12.55343 -39.16395 15703 ft 340 kts 138°
2026-04-28 00:04 -12.57143 -39.14812 15295 ft 342 kts 138°
2026-04-28 00:04 -12.60724 -39.11665 14499 ft 341 kts 138°
2026-04-28 00:04 -12.62519 -39.10086 14101 ft 341 kts 138°
2026-04-28 00:05 -12.64317 -39.08505 13676 ft 340 kts 138°
2026-04-28 00:05 -12.66108 -39.06929 13256 ft 339 kts 139°
2026-04-28 00:05 -12.67897 -39.05356 12846 ft 338 kts 139°
2026-04-28 00:05 -12.69678 -39.03789 12463 ft 337 kts 139°
2026-04-28 00:06 -12.71428 -39.02249 12071 ft 335 kts 139°
2026-04-28 00:06 -12.73211 -39.00680 11678 ft 334 kts 139°
2026-04-28 00:06 -12.74946 -38.99152 11294 ft 332 kts 139°
2026-04-28 00:06 -12.76695 -38.97611 10914 ft 331 kts 139°
2026-04-28 00:07 -12.78389 -38.96119 10539 ft 315 kts 139°
2026-04-28 00:07 -12.80030 -38.94672 10389 ft 306 kts 139°
2026-04-28 00:07 -12.81592 -38.93296 10220 ft 285 kts 139°
2026-04-28 00:07 -12.83054 -38.92008 10112 ft 271 kts 139°
2026-04-28 00:08 -12.84472 -38.90758 9905 ft 270 kts 139°
2026-04-28 00:08 -12.85885 -38.89504 9591 ft 275 kts 136°
2026-04-28 00:08 -12.86967 -38.87903 9272 ft 276 kts 111°
2026-04-28 00:08 -12.87607 -38.86055 8960 ft 275 kts 109°
2026-04-28 00:09 -12.88233 -38.84205 8644 ft 275 kts 109°
2026-04-28 00:09 -12.88862 -38.82356 8321 ft 274 kts 109°
2026-04-28 00:09 -12.89492 -38.80518 8013 ft 273 kts 110°
2026-04-28 00:09 -12.90120 -38.78692 7695 ft 273 kts 110°
2026-04-28 00:10 -12.90755 -38.76854 7380 ft 272 kts 110°
2026-04-28 00:10 -12.91389 -38.75026 7071 ft 272 kts 110°
2026-04-28 00:10 -12.92022 -38.73202 6747 ft 273 kts 110°
2026-04-28 00:10 -12.92650 -38.71396 6424 ft 273 kts 110°
2026-04-28 00:11 -12.93205 -38.69799 6128 ft 273 kts 110°
2026-04-28 00:11 -12.93844 -38.67961 5788 ft 273 kts 110°
2026-04-28 00:11 -12.94480 -38.66134 5476 ft 272 kts 110°
2026-04-28 00:11 -12.95110 -38.64322 5135 ft 263 kts 110°
2026-04-28 00:12 -12.95705 -38.62609 4824 ft 248 kts 110°
2026-04-28 00:12 -12.96269 -38.60934 4545 ft 251 kts 104°
2026-04-28 00:12 -12.96288 -38.59156 4240 ft 253 kts 78°
2026-04-28 00:12 -12.95901 -38.57401 3978 ft 259 kts 79°
2026-04-28 00:13 -12.95533 -38.55595 3673 ft 255 kts 79°
2026-04-28 00:13 -12.95184 -38.53858 3508 ft 243 kts 79°
2026-04-28 00:13 -12.94849 -38.52188 3374 ft 235 kts 79°
2026-04-28 00:13 -12.94535 -38.50621 3221 ft 214 kts 79°
2026-04-28 00:14 -12.94244 -38.49172 3013 ft 201 kts 79°
2026-04-28 00:14 -12.93969 -38.47796 2829 ft 194 kts 79°
2026-04-28 00:14 -12.93705 -38.46473 2552 ft 183 kts 79°
2026-04-28 00:14 -12.93463 -38.45266 2279 ft 169 kts 80°
2026-04-28 00:15 -12.93257 -38.44230 2129 ft 172 kts 80°
2026-04-28 00:15 -12.93017 -38.43036 1840 ft 173 kts 81°
2026-04-28 00:15 -12.92779 -38.41850 1635 ft 165 kts 80°
2026-04-28 00:15 -12.92560 -38.40760 1406 ft 148 kts 81°
2026-04-28 00:16 -12.92359 -38.39754 1260 ft 143 kts 81°
2026-04-28 00:16 -12.92161 -38.38765 1047 ft 144 kts 80°
2026-04-28 00:16 -12.91960 -38.37761 871 ft 143 kts 81°
2026-04-28 00:16 -12.91758 -38.36754 707 ft 144 kts 80°
2026-04-28 00:17 -12.91562 -38.35778 530 ft 142 kts 79°
2026-04-28 00:17 -12.91356 -38.34766 346 ft 145 kts 81°
2026-04-28 00:17 -12.91157 -38.33750 145 ft 146 kts 79°
2026-04-28 00:17 -12.90961 -38.32764 50 ft 127 kts 79°
2026-04-28 00:18 -12.90824 -38.32083 50 ft 77 kts 78°
2026-04-28 00:18 -12.90749 -38.31731 50 ft 28 kts 78°
2026-04-28 00:18 -12.90706 -38.31512 49 ft 39 kts 78°
2026-04-28 00:18 -12.90641 -38.31183 48 ft 49 kts 79°
2026-04-28 00:19 -12.90601 -38.30976 54 ft 17 kts 81°
2026-04-28 00:19 -12.90632 -38.30917 52 ft 9 kts 148°
2026-04-28 00:19 -12.90689 -38.30901 52 ft 0 kts 171°
2026-04-28 00:20 -12.90700 -38.30900 52 ft 5 kts 178°
2026-04-28 00:20 -12.90735 -38.30911 52 ft 6 kts 214°
2026-04-28 00:21 -12.90756 -38.30964 53 ft 9 kts 259°
2026-04-28 00:21 -12.90770 -38.31029 56 ft 10 kts 258°
2026-04-28 00:21 -12.90784 -38.31100 54 ft 11 kts 258°
2026-04-28 00:21 -12.90810 -38.31229 59 ft 27 kts 258°
2026-04-28 00:22 -12.90850 -38.31422 55 ft 28 kts 258°
2026-04-28 00:22 -12.90888 -38.31616 54 ft 28 kts 258°
2026-04-28 00:22 -12.90926 -38.31809 52 ft 28 kts 258°
2026-04-28 00:22 -12.90965 -38.32003 54 ft 28 kts 258°
2026-04-28 00:23 -12.91004 -38.32193 51 ft 28 kts 258°
2026-04-28 00:23 -12.91043 -38.32386 51 ft 28 kts 258°
2026-04-28 00:23 -12.91082 -38.32580 57 ft 28 kts 259°
2026-04-28 00:23 -12.91120 -38.32773 50 ft 28 kts 258°
2026-04-28 00:24 -12.91159 -38.32964 50 ft 21 kts 258°
2026-04-28 00:24 -12.91184 -38.33088 49 ft 11 kts 258°
2026-04-28 00:24 -12.91245 -38.33120 48 ft 12 kts 169°
2026-04-28 00:24 -12.91325 -38.33103 48 ft 12 kts 168°
2026-04-28 00:25 -12.91405 -38.33086 48 ft 12 kts 169°
2026-04-28 00:25 -12.91486 -38.33093 48 ft 11 kts 197°
2026-04-28 00:25 -12.91528 -38.33131 48 ft 8 kts 253°
2026-04-28 00:25 -12.91543 -38.33183 48 ft 8 kts 235°
2026-04-28 00:26 -12.91588 -38.33196 48 ft 7 kts 189°
2026-04-28 00:26 -12.91624 -38.33204 48 ft 2 kts 193°
2026-04-28 00:26 -12.91636 -38.33207 48 ft 0 kts 193°